{"data":{"norad_id":60062,"epoch":"2026-05-24T14:17:49.242912Z","epoch_age_seconds":120629,"freshness":"FRESH","line1":"1 60062U 24113D   26144.59570883  .00006771  00000+0  60688-4 0  9999","line2":"2 60062  53.1571 176.9829 0000993  69.4203 290.6922 15.69713208111482","mean_motion":15.69713208,"eccentricity":9.93e-5,"inclination_deg":53.1571,"raan_deg":176.9829,"arg_perigee_deg":69.4203,"mean_anomaly_deg":290.6922,"bstar":6.0688e-5,"rev_number":11148,"period_min":91.736502735728,"perigee_km":359.04850140853,"apogee_km":360.38663932621,"semimajor_km":6737.8545703674,"source":"CELESTRAK","updated_at":"2026-05-25T13:38:19.156959Z"}}